Location: Murphys Corner
(39.1062°N, 77.8244°W)
Time: 20:10:30
(UTC+00:00)

Envisat - Pass Details

Date: 12 February 2023
Orbit: 763 x 765 km, 98.2° (Epoch: 24 March)

Event Time Altitude Azimuth Distance (km) Brightness Sun altitude
Rises 10:07:54 0° 1° (N) 3,238 6.3 -23.6°
Reaches altitude 10° 10:10:27 10° 351° (N) 2,308 5.4 -23.1°
Enters shadow 10:11:45 17° 341° (NNW) 1,888 4.8 -22.8°
